Other Surface Observations
Issued by NWS Charleston, SC

Home | Current Version | Previous Version | Text Only | Print | Product List | Glossary On
Versions: 1 2 3 4 5 6 7 8 9 10 11 12 13 14 15 16 17 18 19 20 21 22 23 24 25 26 27 28 29 30 31 32 33 34 35 36 37 38 39 40 41 42 43 44 45 46 47 48 49 50
000
SXUS52 KCHS 030028
OSOCHS

MARINE OBSERVATIONS
NATIONAL WEATHER SERVICE CHARLESTON SC
800 PM EDT MON MAY 02 2016

...DOWNTOWN CHARLESTON AND HARBOR...

CITY           SKY/WX    TMP DP  RH WIND       PRES   REMARKS
WATERFRONT PRK   N/A     75  73  93 SW7       29.95R

...LAKE MOULTRIE...

CITY           SKY/WX    TMP DP  RH WIND       PRES   REMARKS
PINOPOLIS        N/A     79  66  65 S5        29.87R

...LAKE AND SUPPLEMENTAL COASTAL OBSERVATIONS...

STATION/POSITION TIME  TEMP    WIND        PRES    WAVE   SWELL
                       AIR SEA DIR/SP/G            HT/PER HT/PER/DIR
                 (UTC) (F)     (DEG/KT/KT) (MB)    (FT/S) (FT/S/D)
FORT PULASKI     0000   75 74              1014.7F
SAPELO ISLAND    0000   76     160/  7     1014.0S
WINYAH BAY       2300   76     200/ 10     1014.0S
LAKE MURRAY      0000   74     170/ 15/ 20 1013.2R
ACE BASIN NERRS  2300   74        CALM     1015.0


...C-MAN AND BUOY OBSERVATIONS...

STATION/POSITION TIME  TEMP    WIND        PRES    WAVE   SWELL
                       AIR SEA DIR/SP/G            HT/PER HT/PER/DIR
                 (UTC) (F)     (DEG/KT/KT) (MB)    (FT/S) (FT/S/D)
BUOY 41004       2350   76 75  170/  8/ 10 1014.7R   3/ 8   3/ 8
BUOY 41008       NOT AVBL
FOLLY BEACH CMAN 0000   74     190/  8/  9 1014.9R
CAPERS NS BUOY   0008   74 74  200/ 12/ 14 1014.8R
FRIPP NS BUOY    0008   75 75  190/ 10/ 12 1014.0R
5E ST. MARYS GA  2321      74                N/A     3/ 5


STATION/POSITION TIME  TEMP    WIND        PRES    WAVE   SWELL
                       AIR SEA DIR/SP/G            HT/PER HT/PER/DIR
                 (UTC) (F)     (DEG/KT/KT) (MB)    (FT/S) (FT/S/D)
FRYING PAN BUOY  0000   75 74  180/ 10/ 12 1015.0F
BUOY 41025       2350   75 74  220/ 14/ 17 1015.3R   4/10   3/ 80/10
CAPE LOOKOUT NC  0000   71     200/ 10/ 11 1014.9R
BUOY 41002       2350   74 75  160/ 14/ 16 1018.3R   4/11   3/ 30/11
BUOY 41010       2320   77 79  140/ 14/ 16 1016.2F
ST AUGUSTINE FL  0000   75 75  150/ 15/ 17 1014.9F

$$




USA.gov is the U.S. government's official web portal to all federal, state and local government web resources and services.